Regional Weather Roundup
Issued by NWS

Home | Current Version | Previous Version | Graphics & Text | Print | Product List | Glossary On
Versions: 1 2 3 4 5 6 7 8 9 10 11 12 13 14 15 16 17 18 19 20 21 22 23 24 25 26 27 28 29 30 31 32 33 34 35 36 37 38 39 40 41 42 43 44 45 46 47 48 49 50
000
ASUS43 KMKX 181911
RWRWI

WISCONSIN REGIONAL WEATHER ROUNDUP
NATIONAL WEATHER SERVICE MILWAUKEE/SULLIVAN WI
200 PM CDT THU SEP 18 2014

NOTE: "FAIR" INDICATES FEW OR NO CLOUDS BELOW 12,000 FEET WITH NO
SIGNIFICANT WEATHER AND/OR OBSTRUCTIONS TO VISIBILITY.

WIZ001-002-006>008-014>016-023>028-182000-
NORTHWEST WISCONSIN

CITY           SKY/WX    TMP DP  RH WIND       PRES   REMARKS
SUPERIOR ARPT  CLOUDY    50  44  78 E7        30.14F
ASHLAND        CLOUDY    50  44  80 N8        30.15F
HAYWARD        CLOUDY    54  49  83 S8        30.13F
SIREN          CLOUDY    57  50  78 SE7       30.11F
RICE LAKE      CLOUDY    54  48  81 SE8       30.15F
LADYSMITH      CLOUDY    54  49  82 SE6       30.16F
EAU CLAIRE     NOT AVBL
MENOMONIE      PTCLDY    62  53  70 E6        30.12F
NEW RICHMOND   SUNNY     65  54  67 E6        30.09F
OSCEOLA        SUNNY     64  55  71 E8        30.11F
$$

WIZ003>005-009-010-017-018-182000-
NORTH CENTRAL WISCONSIN

CITY           SKY/WX    TMP DP  RH WIND       PRES   REMARKS
WOODRUFF       CLOUDY    52  46  80 SE8       30.16F
RHINELANDER    CLOUDY    50  42  74 E3        30.17F
EAGLE RIVER    CLOUDY    52  41  65 S5        30.16F
LAND O LAKES   CLOUDY    53  42  65 S6        30.16F
PHILLIPS       CLOUDY    50  46  85 S6        30.15F
TOMAHAWK       CLOUDY    53  44  71 CALM      30.17F
MEDFORD        CLOUDY    49  45  85 E6        30.17S
MERRILL        CLOUDY    52  44  75 S5        30.17F
$$

WIZ029-030-035-036-043>047-182000-
CENTRAL WISCONSIN

CITY           SKY/WX    TMP DP  RH WIND       PRES   REMARKS
WAUSAU         CLOUDY    52  44  74 VRB3      30.17F
MOSINEE        CLOUDY    52  46  82 SE6       30.19F
MARSHFIELD     CLOUDY    52  47  83 SE8       30.17F
STEVENS POINT  CLOUDY    49  43  81 SE8       30.19F
WAUPACA        CLOUDY    55  46  70 E3        30.20F
WAUTOMA        CLOUDY    56  47  71 NE6       30.19F
WISC RAPIDS    CLOUDY    52  46  80 E7        30.19F
CAMP DOUGLAS   CLOUDY    55  55 100 E8        30.16F
$$

WIZ011>013-019>022-031-037>040-048>050-182000-
NORTHEAST WISCONSIN

CITY           SKY/WX    TMP DP  RH WIND       PRES   REMARKS
ANTIGO         CLOUDY    51  44  75 SE6       30.18F
STURGEON BAY   CLOUDY    54  43  66 CALM      30.20F
GREEN BAY      CLOUDY    55  45  68 SE3       30.20F
MANITOWOC      CLOUDY    56  48  74 E6        30.20F
APPLETON       PTSUNNY   55  45  67 VRB5      30.20F
CLINTONVILLE   CLOUDY    52  43  71 SE3       30.20F
OSHKOSH        CLOUDY    56  48  74 VRB5      30.18F
$$

WIZ032>034-041-042-053>061-182000-
SOUTHWEST WISCONSIN

CITY           SKY/WX    TMP DP  RH WIND       PRES   REMARKS
LA CROSSE      SUNNY     67  54  63 E7        30.11F
SPARTA         CLOUDY    61  52  70 E6        30.15F
VIROQUA        FAIR      64  54  71 SE6       30.14F
BOSCOBEL       SUNNY     65  54  67 NE8       30.13F
PRAIRIE DU CHI MOSUNNY   67  53  59 CALM      30.11F
PLATTEVILLE    FAIR      68  55  61 CALM      30.12F
$$

WIZ056-057-062-063-064-067-068-182000-
SOUTH CENTRAL WISCONSIN

CITY           SKY/WX    TMP DP  RH WIND       PRES   REMARKS
BARABOO/DELLS  CLOUDY    56  50  78 E6        30.16F
LONE ROCK      SUNNY     65  53  65 E6        30.14F
WATERTOWN      PTSUNNY   59  53  80 E3        30.16F
MADISON        MOSUNNY   58  50  75 E7        30.16F
MIDDLETON      MOCLDY    60  52  74 E7        30.16F
MONROE         SUNNY     64  54  68 NE7       30.14F
JANESVILLE     MOSUNNY   64  54  68 NE6       30.15F
$$

WIZ051-052-058>065-066-070>072-182000-
SOUTHEAST WISCONSIN

CITY           SKY/WX    TMP DP  RH WIND       PRES   REMARKS
MILWAUKEE      CLOUDY    59  52  77 N12       30.18F
WAUKESHA       PTSUNNY   61  52  72 E5        30.18F
MILWAUKEE/TIMM CLOUDY    57  48  72 NE9       30.18F
RACINE         CLOUDY    60  53  77 N13       30.19S
BURLINGTON     CLOUDY    62  52  70 NE7       30.15F
KENOSHA        CLOUDY    63  55  75 NE8       30.16F
FOND DU LAC    CLOUDY    56  47  71 VRB5      30.18F
SHEBOYGAN      CLOUDY    58  48  69 E6        30.19F
WEST BEND      PTSUNNY   57  48  72 E3        30.18F
JUNEAU         CLOUDY    57  51  80 E3        30.19F
$$

LSZ147-162-182000-
LAKE SUPERIOR

STATION/POSITION TIME  TEMP    WIND        PRES    WAVE
                       AIR SEA DIR/SP/G            HT/PER
                 (UTC) (F)     (DEG/KT/KT) (MB)    (FT/S)
W MID LAKE BUOY  1850   44 47  100/  8/ 10 1022.4F   1/ 3
DEVILS ISLAND    1800   45     100/  9/ 11 1022.7F
PORT WING        1800   50      20/ 14/ 17 1021.0F
SAXON HARBOR     1800   48      20/  4/  6 1022.0
$$

LMZ867-665-643>646-182000-
LAKE MICHIGAN

STATION/POSITION TIME  TEMP    WIND        PRES    WAVE
                       AIR SEA DIR/SP/G            HT/PER
                 (UTC) (F)     (DEG/KT/KT) (MB)    (FT/S)
N MID LAKE BUOY  1850   51 59   50/  6/  8 1023.3F   1/ 3
NORTHPORT PIER   1800   54     110/  4/  7 1023.4F
KEWAUNEE LAKESHO 1800   53      40/  8/ 10 1022.1S
SHEBOYGAN LAKESH 1900   50 49   30/ 11/ 12 1022.9F
PORT WASHINGTON  1800   56      50/ 10/ 12 1023.0
ATWATER BUOY     1900   56      30/ 14/ 16 1022.6F
MILWAUKEE LAKESH 1800   55      30/ 11/ 13   N/A
S MID LAKE BUOY  1850   62 64  280/  4/  6 1021.2F   3/ 6
KENOSHA   LAKESH 1900   56      20/ 15/ 17 1021.0F
$$

TC  - TEMPERATURE IN CELSIUS
VSB - VISIBILITY IN STATUTE MILES
WCI - WIND CHILL INDEX
HX  - HEAT INDEX



USA.gov is the U.S. government's official web portal to all federal, state and local government web resources and services.